Regional Weather Roundup
Issued by NWS Bismarck, ND

Home | Current Version | Previous Version | Text Only | Print | Product List | Glossary On
Versions: 1 2 3 4 5 6 7 8 9 10 11 12 13 14 15 16 17 18 19 20 21 22 23 24 25 26 27 28 29 30 31 32 33 34 35 36 37 38 39 40 41 42 43 44 45 46 47 48 49 50
000
ASUS43 KBIS 311302
RWRBIS

NWR BROADCAST TEXT
NATIONAL WEATHER SERVICE BISMARCK ND
800 AM CDT FRI JUL 31 2015

NOTE: "FAIR" INDICATES FEW OR NO CLOUDS BELOW 12,000 FEET WITH NO
SIGNIFICANT WEATHER AND/OR OBSTRUCTIONS TO VISIBILITY.


CITY           SKY/WX    TMP DP  RH WIND       PRES   REMARKS
WILLISTON      SUNNY     61  53  75 SW3       30.16S
MINOT          SUNNY     63  52  67 NW6       30.14R
MINOT AFB      SUNNY     60  55  84 W5        30.13S
BISMARCK       SUNNY     59  53  80 W3        30.18S
DICKINSON      SUNNY     63  51  65 SW5       30.18S
GARRISON         N/A     61  54  77 CALM      30.15S
HETTINGER ARPT SUNNY     52  48  86 CALM      30.23R
JAMESTOWN      SUNNY     63  53  70 W8        30.14R
HAZEN          FAIR      54  50  87 W3        30.17S
OAKES            N/A     61  55  82 W5        30.15S
STANLEY        FAIR      61  55  82 CALM      30.17S
$$

CITY           SKY/WX    TMP DP  RH WIND       PRES   REMARKS
GRAND FORKS    MOSUNNY   64  54  69 W9        30.06R
GRAND FORKS AF SUNNY     64  54  69 NW9       30.07R
DEVILS LAKE    PTSUNNY   63  50  63 W10       30.11R
FARGO          SUNNY     62  54  74 W12       30.09R
CAVALIER       FAIR      63  54  72 W9        30.05R
GRAFTON        FAIR      63  54  72 W12       30.06R
GWINNER        FAIR      63  52  67 W9        30.14S
LANGDON        FAIR      57  52  82 W10       30.09S
$$

CITY           SKY/WX    TMP DP  RH WIND       PRES   REMARKS
ABERDEEN       SUNNY     62  55  77 CALM      30.16R
MOBRIDGE       SUNNY     63  60  90 CALM      30.17R
BUFFALO          N/A     56  47  71 W5        30.18S
RAPID CITY     SUNNY     65  51  60 CALM      30.22S
GLASGOW        SUNNY     62  49  62 E8        30.17R
SIDNEY         SUNNY     55  50  82 S6        30.17S
WOLF POINT     SUNNY     55  51  86 CALM      30.18R
GLENDIVE       SUNNY     61  50  67 CALM      30.20S
MILES CITY     SUNNY     62  48  60 CALM      30.19S
BAKER          SUNNY     60  49  66 CALM      30.23S
$$

CITY           SKY/WX    TMP DP  RH WIND       PRES   REMARKS
BILLINGS       CLEAR     58  44  60 SW7       30.24R
GREAT FALLS    CLEAR     55  43  63 W7        30.20R
$$



USA.gov is the U.S. government's official web portal to all federal, state and local government web resources and services.